Regional Weather Roundup
Issued by NWS

Home | Current Version | Previous Version | Graphics & Text | Print | Product List | Glossary On
Versions: 1 2 3 4 5 6 7 8 9 10 11 12 13 14 15 16 17 18 19 20 21 22 23 24 25 26 27 28 29 30 31 32 33 34 35 36 37 38 39 40 41 42 43 44 45 46 47 48 49 50
370
ASUS44 KMEG 192110
RWRTN
TENNESSEE HOURLY STATE WEATHER ROUNDUP
NATIONAL WEATHER SERVICE MEMPHIS TN
300 PM CST SUN FEB 19 2017

TNZ002-004-019-021-049-052-054-088>092-192200-
WEST TENNESSEE

CITY           SKY/WX    TMP DP  RH WIND       PRES   REMARKS
MEMPHIS INTL   MOSUNNY   75  53  46 CALM      30.05F
NWS MEMPHIS      N/A     77 N/A N/A MISG        N/A
JACKSON        SUNNY     74  55  51 NW5       30.07F
UNION CITY     SUNNY     70  48  46 CALM      30.07R
PARIS          SUNNY     66  52  59 CALM      30.09S
HUNTINGDON     SUNNY     72  52  49 S5        30.07S
$$

TNZ008-025-027-028-033-062-065-066-192200-
NORTH MIDDLE TENNESSEE

CITY           SKY/WX    TMP DP  RH WIND       PRES   REMARKS
NASHVILLE      MOSUNNY   67  50  54 CALM      30.11S
PORTLAND       SUNNY     64  52  63 CALM      30.11S
CLARKSVILLE    SUNNY     68  51  54 CALM      30.09S
SMYRNA         SUNNY     67  52  58 N5        30.12S
COOKEVILLE     SUNNY     66  48  52 CALM      30.10S
GALLATIN       SUNNY     64  52  63 CALM      30.14S
CROSSVILLE     SUNNY     65  44  46 MISG      30.12R
$$

TNZ061-075-076-078-094-096-097-192200-
SOUTH MIDDLE TENNESSEE

CITY           SKY/WX    TMP DP  RH WIND       PRES   REMARKS
FAYETTEVILLE   SUNNY     68  50  52 N6        30.10F
TULLAHOMA      SUNNY     68  46  45 CALM      30.12S
WINCHESTER     SUNNY     66  48  52 CALM      30.11F
MCMINNVILLE    SUNNY     66  50  55 CALM      30.11S
COLUMBIA       SUNNY     70  55  60 CALM      30.09S
SHELBYVILLE    SUNNY     70  52  52 NW5       30.12S
$$

TNZ017-018-042-046-047-192200-
NORTHEAST TENNESSEE

CITY           SKY/WX    TMP DP  RH WIND       PRES   REMARKS
TRI CITIES     MOSUNNY   61  43  51 N5        30.11S
ELIZABETHTON   PTSUNNY   61  45  55 NW7       30.11R
$$

TNZ012-013-036-069-073-074-192200-
CENTRAL EAST TENNESSEE

CITY           SKY/WX    TMP DP  RH WIND       PRES   REMARKS
KNOXVILLE      SUNNY     64  45  49 NE5       30.10S
OAK RIDGE      MOSUNNY   64  44  48 S3        30.12R
GATLINBURG     SUNNY     63  43  48 CALM      30.10S
MORRISTOWN     SUNNY     61  45  55 CALM      30.10S
JACKSBORO      SUNNY     64  45  48 CALM      30.13S
$$

TNZ083-085-099-192200-
SOUTHEAST TENNESSEE

CITY           SKY/WX    TMP DP  RH WIND       PRES   REMARKS
CHATTANOOGA    MOSUNNY   68  47  46 NW3       30.11R
$$

SKY/WX REPORTED AS FAIR MEANS FEW OR NO CLOUDS BELOW
12 THOUSAND FEET.





USA.gov is the U.S. government's official web portal to all federal, state and local government web resources and services.